Location: ??
(35.5052°N, 139.7262°E)
Time: 15:57:05
(UTC+00:00)

CZ-4C R/B - Pass Details

Date: 20 June 2021
Orbit: 464 x 632 km, 98.0° (Epoch: 29 July)

Event Time Altitude Azimuth Distance (km) Brightness Sun altitude
Exits shadow 18:16:24 20° 220° (SW) 1,125 4.3 -12.4°
Maximum altitude 18:17:54 28° 262° (W) 902 4.0 -12.1°
Drops below altitude 10° 18:20:56 10° 323° (NW) 1,621 5.8 -11.7°
Sets 18:23:11 0° 335° (NNW) 2,505 6.9 -11.3°
